Regional Weather Roundup
Issued by NWS

Home | Current Version | Previous Version | Text Only | Print | Product List | Glossary Off
Versions: 1 2 3 4 5 6 7 8 9 10 11 12 13 14 15 16 17 18 19 20 21 22 23 24 25 26 27 28 29 30 31 32 33 34 35 36 37 38 39 40 41 42 43 44 45 46 47 48 49 50

000
ASUS43 KLSX 282107
RWRMO

WEATHER SUMMARY FOR MISSOURI
NATIONAL WEATHER SERVICE SPRINGFIELD MO
400 PM CDT TUE JUL 28 2015

NOTE: "FAIR" INDICATES FEW OR NO CLOUDS BELOW 12,000 FEET WITH NO
       SIGNIFICANT WEATHER AND/OR OBSTRUCTIONS TO VISIBILITY.
       CURRENT SKY AND/OR WEATHER CONDITIONS ARE NOT AVAILABLE FOR
       CHILLICOTHE AND FARMINGTON.

MOZ001>031-035>038-043-044-053-054-282200-
...NORTHERN AND WESTERN MISSOURI...

CITY           SKY/WX    TMP DP  RH WIND       PRES   REMARKS
KANSAS CTY INT MOSUNNY   94  75  54 S14       29.88F HX 105
KANSAS C DTWN  SUNNY     97  73  45 S14       29.86F HX 107
LEE`S SUMMIT   SUNNY     93  72  50 S15G21    29.90F HX 101
ST JOSEPH      SUNNY     93  75  55 S16G22    29.85F HX 104
CHILLICOTHE      N/A     94  77  57 S10G16    29.89F HX 108
KIRKSVILLE     MOSUNNY   93  74  53 SW10      29.92R HX 103

$$
MOZ066>068-077>081-088>096-101>105-282200-
...SOUTHWEST MISSOURI...

CITY           SKY/WX    TMP DP  RH WIND       PRES   REMARKS
SPRINGFIELD    MOSUNNY   92  74  55 S13       29.97F HX 101
JOPLIN         MOSUNNY   94  73  50 S16       29.95F HX 103

$$
MOZ032>034-039>042-045>050-055>058-069>072-282200-
...CENTRAL MISSOURI...

CITY           SKY/WX    TMP DP  RH WIND       PRES   REMARKS
COLUMBIA       SUNNY     92  76  59 SW12      29.93F HX 104
JEFFERSON CITY MOSUNNY   94  74  52 S10       29.91F HX 104
ROLLA          MOSUNNY   90  77  65 S5        29.96S HX 103
SEDALIA        SUNNY     96  74  48 S15       29.93F HX 107
WHITEMAN AFB   MOSUNNY   96  74  49 SW20      29.90F HX 105
WARRENSBURG    SUNNY     91  70  49 S14G21    29.90S HX  97
OSAGE BEACH    SUNNY     95  73  49 S12       29.95F HX 105

$$
MOZ051-052-059>065-282200-
...EAST CENTRAL MISSOURI...

CITY           SKY/WX    TMP DP  RH WIND       PRES   REMARKS
ST LOUIS INTL  MOSUNNY   99  75  46 W6        29.92F HX 112
SPIRIT OF STL  MOSUNNY   95  78  58 W8        29.90F HX 111
ST CHARLES     MOSUNNY   94  79  61 SW5       29.90F HX 111

$$
MOZ072>076-082>087-097>100-106>115-282200-
...SOUTH CENTRAL AND SOUTHEAST MISSOURI...

CITY           SKY/WX    TMP DP  RH WIND       PRES   REMARKS
CAPE GIRARDEAU MOSUNNY   93  78  61 SW7       29.93F HX 108
FARMINGTON     MOSUNNY   93  79  62 SW8       29.99F HX 110
POPLAR BLUFF   SUNNY     93  78  61 SW8       29.94F HX 108
WEST PLAINS    MOSUNNY   92  72  51 SW9       30.01F HX  99

$$



USA.gov is the U.S. government's official web portal to all federal, state and local government web resources and services.